TimePST,TemperatureF,Dew PointF,Humidity,Sea Level PressureIn,VisibilityMPH,Wind Direction,Wind SpeedMPH,Gust SpeedMPH,PrecipitationIn,Events,Conditions,WindDirDegrees,DateUTC
12:53 AM,60.1,24.1,25,30.08,10.0,Calm,Calm,-,N/A,,Clear,0,2013-12-02 08:53:00
1:53 AM,55.9,27.0,33,30.07,10.0,Calm,Calm,-,N/A,,Clear,0,2013-12-02 09:53:00
2:53 AM,55.0,27.0,34,30.05,10.0,West,3.5,-,N/A,,Clear,260,2013-12-02 10:53:00
3:53 AM,51.1,28.9,43,30.03,10.0,Calm,Calm,-,N/A,,Clear,0,2013-12-02 11:53:00
4:53 AM,50.0,30.9,48,30.04,10.0,NNE,3.5,-,N/A,,Clear,20,2013-12-02 12:53:00
5:53 AM,48.9,32.0,52,30.06,10.0,Calm,Calm,-,N/A,,Clear,0,2013-12-02 13:53:00
6:53 AM,53.1,30.0,41,30.08,10.0,West,4.6,-,N/A,,Clear,260,2013-12-02 14:53:00
7:53 AM,53.1,34.0,48,30.07,10.0,Calm,Calm,-,N/A,,Clear,0,2013-12-02 15:53:00
8:53 AM,60.1,30.9,33,30.06,10.0,Calm,Calm,-,N/A,,Clear,0,2013-12-02 16:53:00
9:53 AM,66.0,25.0,21,30.06,10.0,Calm,Calm,-,N/A,,Clear,0,2013-12-02 17:53:00
10:53 AM,72.0,27.0,19,30.04,10.0,West,3.5,-,N/A,,Clear,280,2013-12-02 18:53:00
11:53 AM,75.0,23.0,14,30.01,10.0,SW,3.5,-,N/A,,Clear,230,2013-12-02 19:53:00
12:53 PM,75.9,25.0,15,29.99,10.0,Calm,Calm,-,N/A,,Clear,0,2013-12-02 20:53:00
1:53 PM,75.9,28.9,18,29.95,10.0,SSE,3.5,-,N/A,,Clear,160,2013-12-02 21:53:00
2:53 PM,75.0,30.9,20,29.93,10.0,South,3.5,-,N/A,,Clear,180,2013-12-02 22:53:00
3:53 PM,72.0,35.1,26,29.92,10.0,South,4.6,-,N/A,,Clear,170,2013-12-02 23:53:00
4:53 PM,68.0,35.1,30,29.91,10.0,SE,3.5,-,N/A,,Clear,140,2013-12-03 00:53:00
5:53 PM,64.9,35.1,33,29.91,10.0,East,3.5,-,N/A,,Clear,80,2013-12-03 01:53:00
6:53 PM,63.0,35.1,35,29.93,10.0,East,3.5,-,N/A,,Clear,90,2013-12-03 02:53:00
7:53 PM,63.0,34.0,34,29.92,10.0,Calm,Calm,-,N/A,,Clear,0,2013-12-03 03:53:00
8:53 PM,57.0,36.0,45,29.91,10.0,Calm,Calm,-,N/A,,Clear,0,2013-12-03 04:53:00
9:53 PM,55.0,37.0,51,29.90,10.0,Calm,Calm,-,N/A,,Clear,0,2013-12-03 05:53:00
10:53 PM,55.9,35.1,45,29.89,10.0,Calm,Calm,-,N/A,,Clear,0,2013-12-03 06:53:00
11:53 PM,53.1,36.0,52,29.89,10.0,Calm,Calm,-,N/A,,Clear,0,2013-12-03 07:53:00